Date String (YYYY-MM-DD hh:mm:ss) UTC,Instrument flags,Ambient pressure (hPa),Sample flow (lpm),Bypass flow (lpm),Sample temperature (°C),Ambient temperature (°C),ASC tube jacket temperature (°C),LED temperature (°C),Box temperature (°C),Sample RH (%),Span deviation,Mass concentration (μg/m³),Mass concentration (μg/m³),Mass concentration (μg/m³)
DateTimeUTC,F1_M11,P_M11,Q1_M11,Q2_M11,T1_M11,T2_M11,T3_M11,T4_M11,T5_M11,U1_M11,ZSPAN_M11,X0_M11,X2_M11,X1_M11
2022-11-21 08:00:00,,0829.3,5.02,0.00,22.3,21.7,00.0,31.1,24.2,07.6,0000.0,0007.14,0004.00,0003.83
2022-11-21 08:01:00,,0829.0,4.99,0.00,22.3,21.4,00.0,31.1,24.2,07.6,0000.0,0006.95,0003.94,0003.78
2022-11-21 08:02:00,,0828.7,4.99,0.00,22.3,21.2,00.0,31.1,24.1,07.6,0000.0,0006.84,0003.88,0003.73
2022-11-21 08:03:00,,0828.7,5.02,0.00,22.3,21.1,00.0,31.1,24.1,07.5,0000.0,0006.72,0003.81,0003.66
2022-11-21 08:04:00,,0828.7,4.98,0.00,22.2,21.0,00.0,31.2,24.1,07.5,0000.0,0006.48,0003.74,0003.59
2022-11-21 08:05:00,,0828.7,5.01,0.00,22.2,20.9,00.0,31.1,24.0,07.5,0000.0,0005.15,0003.64,0003.49
2022-11-21 08:06:00,,0828.7,5.01,0.00,22.2,20.8,00.0,31.1,24.0,07.5,0000.0,0005.54,0003.53,0003.38
2022-11-21 08:07:00,,0828.7,4.99,0.00,22.2,20.7,00.0,31.1,24.0,07.5,0000.0,0005.28,0003.40,0003.26
2022-11-21 08:08:00,,0828.7,5.00,0.00,22.2,20.7,00.0,31.1,23.9,07.5,0000.0,0004.88,0003.29,0003.16
2022-11-21 08:09:00,,0828.7,5.00,0.00,22.1,20.7,00.0,31.1,23.9,07.5,0000.0,0005.25,0003.25,0003.11
2022-11-21 08:10:00,,0828.8,5.00,0.00,22.1,20.6,00.0,31.1,23.9,07.5,0000.0,0005.57,0003.23,0003.07
2022-11-21 08:11:00,,0828.7,5.02,0.00,22.1,20.6,00.0,31.1,23.8,07.6,0000.0,0005.53,0003.22,0003.07
2022-11-21 08:12:00,,0828.7,4.98,0.00,22.1,20.5,00.0,31.1,23.8,07.5,0000.0,0005.57,0003.22,0003.05
2022-11-21 08:13:00,,0828.7,5.02,0.00,22.0,20.5,00.0,31.1,23.8,07.5,0000.0,0005.51,0003.19,0003.01
2022-11-21 08:14:00,,0828.7,4.99,0.00,22.0,20.5,00.0,31.1,23.8,07.6,0000.0,0005.49,0003.19,0002.98
2022-11-21 08:15:00,,0828.7,4.99,0.00,22.0,20.5,00.0,31.0,23.7,07.6,0000.0,0005.42,0003.17,0002.96
2022-11-21 08:16:00,,0828.9,5.02,0.00,22.0,21.1,00.0,31.0,23.9,07.6,0000.0,0005.68,0003.17,0002.94
2022-11-21 08:17:00,,0829.1,5.00,0.00,22.1,21.9,00.0,30.9,24.1,07.5,0000.0,0005.34,0003.17,0002.92
2022-11-21 08:18:00,,0829.3,4.99,0.00,22.2,21.9,00.0,31.0,24.1,07.5,0000.0,0005.16,0003.15,0002.90
2022-11-21 08:19:00,,0829.1,4.99,0.00,22.2,21.6,00.0,31.0,24.1,07.4,0000.0,0005.16,0003.14,0002.88
2022-11-21 08:20:00,,0829.0,4.99,0.00,22.2,21.4,00.0,31.1,24.1,07.4,0000.0,0004.93,0003.14,0002.87
2022-11-21 08:21:00,,0828.9,5.01,0.00,22.2,21.2,00.0,31.1,24.0,07.5,0000.0,0004.90,0003.14,0002.86
2022-11-21 08:22:00,,0828.7,5.00,0.00,22.1,21.0,00.0,31.1,23.9,07.4,0000.0,0004.89,0003.14,0002.86
2022-11-21 08:23:00,,0828.7,4.99,0.00,22.1,20.8,00.0,31.1,23.9,07.4,0000.0,0004.85,0003.13,0002.86
2022-11-21 08:24:00,,0829.2,5.00,0.00,22.1,20.8,00.0,31.1,23.9,07.4,0000.0,0004.87,0003.15,0002.87
2022-11-21 08:25:00,,0829.3,5.02,0.00,22.1,20.7,00.0,31.1,23.9,07.4,0000.0,0004.81,0003.14,0002.88
2022-11-21 08:26:00,,0829.2,4.98,0.00,22.1,20.6,00.0,31.0,23.8,07.4,0000.0,0004.83,0003.15,0002.89
2022-11-21 08:27:00,,0829.4,5.01,0.00,22.0,20.6,00.0,31.0,23.8,07.5,0000.0,0004.60,0003.14,0002.90
2022-11-21 08:28:00,,0829.3,5.01,0.00,22.0,20.6,00.0,31.0,23.8,07.5,0000.0,0004.49,0003.12,0002.88
2022-11-21 08:29:00,,0829.3,4.99,0.00,22.0,20.5,00.0,31.0,23.8,07.6,0000.0,0004.52,0003.12,0002.88
2022-11-21 08:30:00,,0829.3,5.00,0.00,22.0,20.4,00.0,31.0,23.8,07.5,0000.0,0004.57,0003.13,0002.89
2022-11-21 08:31:00,,0829.2,5.00,0.00,22.0,20.4,00.0,31.0,23.7,07.5,0000.0,0004.51,0003.12,0002.89
2022-11-21 08:32:00,,0828.8,4.99,0.00,22.0,21.1,00.0,30.9,23.9,07.5,0000.0,0004.11,0003.12,0002.91
2022-11-21 08:33:00,,0828.8,5.01,0.00,22.1,22.0,00.0,30.9,24.1,07.4,0000.0,0003.95,0003.12,0002.91
2022-11-21 08:34:00,,0828.8,5.00,0.00,22.2,22.0,00.0,31.0,24.1,07.4,0000.0,0004.05,0003.15,0002.95
2022-11-21 08:35:00,,0828.8,4.99,0.00,22.2,21.7,00.0,31.0,24.1,07.4,0000.0,0004.12,0003.18,0002.98
2022-11-21 08:36:00,,0828.8,5.02,0.00,22.2,21.5,00.0,31.0,24.1,07.4,0000.0,0004.16,0003.19,0003.00
2022-11-21 08:37:00,,0828.8,4.99,0.00,22.2,21.2,00.0,31.0,24.0,07.4,0000.0,0004.19,0003.20,0003.01
2022-11-21 08:38:00,,0828.9,5.00,0.00,22.2,21.0,00.0,31.1,24.0,07.4,0000.0,0004.13,0003.21,0003.03
2022-11-21 08:39:00,,0828.9,5.01,0.00,22.1,20.9,00.0,31.1,23.9,07.4,0000.0,0004.32,0003.26,0003.08
2022-11-21 08:40:00,,0828.9,4.99,0.00,22.1,20.8,00.0,31.1,23.9,07.4,0000.0,0004.35,0003.28,0003.11
2022-11-21 08:41:00,,0828.9,5.01,0.00,22.1,20.7,00.0,31.1,23.9,07.4,0000.0,0004.41,0003.31,0003.13
2022-11-21 08:42:00,,0828.9,4.99,0.00,22.1,20.7,00.0,31.1,23.9,07.4,0000.0,0004.45,0003.32,0003.13
2022-11-21 08:43:00,,0828.9,5.00,0.00,22.1,20.6,00.0,31.0,23.9,07.4,0000.0,0004.50,0003.34,0003.14
2022-11-21 08:44:00,,0828.8,5.01,0.00,22.0,20.6,00.0,31.0,23.8,07.4,0000.0,0004.51,0003.34,0003.15
2022-11-21 08:45:00,,0828.8,4.98,0.00,22.0,20.5,00.0,31.0,23.8,07.5,0000.0,0004.51,0003.33,0003.14
2022-11-21 08:46:00,,0828.8,5.01,0.00,22.0,20.5,00.0,31.0,23.7,07.5,0000.0,0004.46,0003.31,0003.12
2022-11-21 08:47:00,,0828.9,5.01,0.00,22.0,20.4,00.0,31.0,23.7,07.6,0000.0,0004.43,0003.30,0003.11
2022-11-21 08:48:00,,0828.9,4.98,0.00,21.9,20.4,00.0,31.0,23.7,07.6,0000.0,0004.35,0003.27,0003.09
2022-11-21 08:49:00,,0828.9,5.01,0.00,22.0,21.0,00.0,30.9,23.8,07.5,0000.0,0004.42,0003.29,0003.08
2022-11-21 08:50:00,,0828.8,4.99,0.00,22.1,21.9,00.0,30.9,24.0,07.5,0000.0,0004.28,0003.26,0003.07
2022-11-21 08:51:00,,0828.8,4.99,0.00,22.1,22.0,00.0,30.9,24.1,07.4,0000.0,0004.35,0003.29,0003.09
2022-11-21 08:52:00,,0829.4,4.99,0.00,22.2,21.7,00.0,31.0,24.1,07.4,0000.0,0004.46,0003.32,0003.13
2022-11-21 08:53:00,,0829.3,5.02,0.00,22.1,21.4,00.0,31.0,24.1,07.4,0000.0,0004.60,0003.37,0003.16
2022-11-21 08:54:00,,0829.3,4.99,0.00,22.1,21.2,00.0,31.0,24.0,07.4,0000.0,0004.72,0003.42,0003.20
2022-11-21 08:55:00,,0829.3,4.99,0.00,22.1,21.1,00.0,31.0,24.0,07.5,0000.0,0004.90,0003.50,0003.29
2022-11-21 08:56:00,,0829.3,5.01,0.00,22.1,20.9,00.0,31.0,24.0,07.5,0000.0,0006.28,0003.62,0003.40
2022-11-21 08:57:00,,0829.0,5.00,0.00,22.1,20.8,00.0,31.0,23.9,07.5,0000.0,0006.74,0003.73,0003.51
2022-11-21 08:58:00,,0829.4,5.01,0.00,22.1,20.7,00.0,31.0,23.9,07.5,0000.0,0007.96,0003.84,0003.62
2022-11-21 08:59:00,,0829.3,4.99,0.00,22.1,20.7,00.0,31.0,23.9,07.5,0000.0,0008.54,0003.97,0003.73
